Voltar ao catálogo

METEOR 1-12

AtivoMeteoPO
NORAD 6079·PAYLOAD·🇷🇺 Russia

Lançado Jun 30, 1972 de Plesetsk Cosmodrome

Loading…

Próximas Passagens (próximas 24 horas)

TLE

AtualizadoSource: Space-Track

Época: Sep 14, 2026, 10:04 UTC

1 06079U 72049A   26257.41991303  .00000080  00000-0  43500-4 0  9990
2 06079  81.2234 261.2376 0009972 219.4681 140.5761 14.03592337773625

Acompanhe METEOR 1-12 em tempo real com AllMySat

Download on the App Store